Alliance, NE

9:55 AM MDT on October 21, 2019 (GMT -0600)
Alliance Municipal

Weather History for KAIA - May, 2019

Change the Weather History Date:

Wednesday, May 22, 2019

  Actual Average Record
Temperature  
Mean Temperature 40 °F -  
Max Temperature 51 °F 71 °F 98 °F (2012)
Min Temperature 33 °F 44 °F 28 °F (1910)
Degree Days  
Heating Degree Days 24    
Moisture  
Dew Point 35 °F    
Average Humidity 90    
Maximum Humidity 100    
Minimum Humidity 66    
Precipitation  
Precipitation 0.16 in - - ()
Sea Level Pressure  
Sea Level Pressure 29.66 in    
Wind  
Wind Speed 19 mph (NW)    
Max Wind Speed 22 mph    
Max Gust Speed 29 mph    
Visibility 6 miles    
Events Snow    
Averages and records for this station are not official NWS values.
T = Trace of Precipitation, MM = Missing Value Source: NWS Daily Summary

Daily Weather History Graph

Daily Weather History Graph

Search for Another Location

Airport or City:

Astronomy

May. 22, 2019 Rise Set
Actual Time 5:24 AM MDT 8:11 PM MDT
Civil Twilight 4:51 AM MDT 8:44 PM MDT
Nautical Twilight 4:10 AM MDT 9:25 PM MDT
Astronomical Twilight 3:23 AM MDT 10:13 PM MDT
Moon 11:57 PM MDT (5/22) 8:33 AM MDT (5/22)
Length of Visible Light 15h 52m
Length of Day
14h 47m
Waning Gibbous, 84% of the Moon is Illuminated
May 22
Waning Gibbous
May 26
Last Quarter
Jun 3
New
Jun 10
First Quarter
Jun 17
Full

Hourly Weather History & Observations

Time (MDT) Temp. Windchill Dew Point Humidity Pressure Visibility Wind Dir Wind Speed Gust Speed Precip Events Conditions
12:18 AM 33.1 °F 20.9 °F 33.1 °F 100% 29.48 in 2.5 mi NW 21.9 mph 27.6 mph 0.01 in Snow Light Snow
12:28 AM 33.1 °F 21.5 °F 33.1 °F 100% 29.48 in 1.2 mi NNW 19.6 mph - 0.01 in Snow Light Snow
12:47 AM 33.8 °F 21.9 °F 33.8 °F 100% 29.48 in 2.0 mi NW 21.9 mph - 0.01 in Snow Light Snow
12:48 AM 33.1 °F 20.9 °F 33.1 °F 100% 29.52 in 2.0 mi NW 21.9 mph - 0.01 in Snow Light Snow
1:01 AM 33.1 °F 20.9 °F 33.1 °F 100% 29.48 in 4.0 mi NW 21.9 mph - 0.01 in Snow Light Snow
1:18 AM 33.1 °F 20.9 °F 33.1 °F 100% 29.48 in 2.0 mi NNW 21.9 mph - 0.01 in Snow Light Snow
1:37 AM 33.1 °F 21.2 °F 33.1 °F 100% 29.48 in 1.8 mi NW 20.7 mph - 0.01 in Snow Light Snow
1:46 AM 33.1 °F 20.9 °F 33.1 °F 100% 29.48 in 2.5 mi NW 21.9 mph 27.6 mph 0.01 in Snow Light Snow
1:53 AM 33.1 °F 21.2 °F 32.0 °F 96% 29.53 in 3.0 mi NW 20.7 mph 28.8 mph 0.01 in Snow Light Snow
2:12 AM 33.1 °F 20.9 °F 32.0 °F 96% 29.48 in 2.5 mi NW 21.9 mph - 0.00 in Snow Light Snow
2:36 AM 33.1 °F 20.9 °F 33.1 °F 100% 29.49 in 1.8 mi NW 21.9 mph 26.5 mph 0.01 in Snow Light Snow
2:53 AM 33.1 °F 21.5 °F 32.0 °F 96% 29.53 in 1.8 mi NW 19.6 mph 27.6 mph 0.01 in Snow Light Snow
3:04 AM 33.1 °F 21.5 °F 32.0 °F 96% 29.48 in 2.0 mi NW 19.6 mph - 0.00 in Snow Light Snow
3:13 AM 33.1 °F 21.2 °F 32.0 °F 96% 29.48 in 3.0 mi NW 20.7 mph - 0.00 in Snow Light Snow
3:39 AM 33.1 °F 21.9 °F 33.1 °F 100% 29.50 in 2.5 mi NW 18.4 mph 26.5 mph 0.00 in Snow Light Snow
3:48 AM 33.8 °F 22.5 °F 33.8 °F 100% 29.49 in 4.0 mi NW 19.6 mph 25.3 mph 0.00 in Snow Light Snow
3:53 AM 33.1 °F 21.2 °F 33.1 °F 100% 29.54 in 5.0 mi NW 20.7 mph - 0.00 in Snow Light Snow
4:14 AM 34.0 °F 23.0 °F 33.1 °F 96% 29.50 in 9.0 mi NW 18.4 mph - 0.01 in   Overcast
4:53 AM 34.0 °F 23.0 °F 33.1 °F 96% 29.55 in 7.0 mi NW 18.4 mph - 0.02 in Snow Light Snow
5:53 AM 34.0 °F 23.8 °F 33.1 °F 96% 29.57 in 10.0 mi NW 16.1 mph - 0.01 in   Overcast
6:53 AM 34.0 °F 24.2 °F 33.1 °F 96% 29.59 in 10.0 mi NW 15.0 mph - 0.02 in   Overcast
7:09 AM 34.0 °F 23.8 °F 33.1 °F 96% 29.56 in 2.5 mi NW 16.1 mph - 0.01 in Snow Light Snow
7:16 AM 34.0 °F 22.7 °F 33.1 °F 96% 29.56 in 3.0 mi NW 19.6 mph - 0.02 in Snow Light Snow
7:51 AM 33.8 °F 23.5 °F 33.8 °F 100% 29.58 in 6.0 mi NW 16.1 mph - 0.03 in Snow Light Snow
7:53 AM 34.0 °F 23.4 °F 34.0 °F 100% 29.62 in 6.0 mi NW 17.3 mph - 0.03 in Snow Light Snow
8:05 AM 34.0 °F 24.2 °F 34.0 °F 100% 29.59 in 3.0 mi NW 15.0 mph - 0.01 in Snow Light Snow
8:27 AM 34.0 °F 23.4 °F 34.0 °F 100% 29.59 in 2.0 mi WNW 17.3 mph - 0.02 in Snow Light Snow
8:37 AM 34.0 °F 24.6 °F 34.0 °F 100% 29.60 in 8.0 mi WNW 13.8 mph - 0.03 in Snow Light Snow
8:53 AM 34.0 °F 24.6 °F 34.0 °F 100% 29.65 in 6.0 mi WNW 13.8 mph - 0.04 in Snow Light Snow
9:07 AM 35.1 °F 25.5 °F 34.0 °F 96% 29.61 in 10.0 mi WNW 15.0 mph - 0.01 in   Overcast
9:53 AM 37.0 °F 28.1 °F 35.1 °F 93% 29.68 in 10.0 mi WNW 15.0 mph - 0.02 in   Scattered Clouds
10:53 AM 39.9 °F 31.4 °F 36.0 °F 86% 29.70 in 10.0 mi NW 16.1 mph - N/A   Mostly Cloudy
11:53 AM 44.1 °F 36.2 °F 37.9 °F 79% 29.70 in 10.0 mi NW 18.4 mph - N/A   Mostly Cloudy
12:53 PM 45.0 °F 37.6 °F 37.9 °F 76% 29.73 in 10.0 mi WNW 17.3 mph - N/A   Overcast
1:53 PM 46.9 °F - 37.9 °F 71% 29.76 in 10.0 mi West 15.0 mph - N/A   Overcast
2:53 PM 46.9 °F - 37.9 °F 71% 29.79 in 10.0 mi WNW 16.1 mph - N/A   Overcast
3:53 PM 48.9 °F - 39.0 °F 69% 29.82 in 10.0 mi West 16.1 mph - N/A   Overcast
4:20 PM 46.9 °F - 37.9 °F 71% 29.82 in 10.0 mi WNW 17.3 mph - N/A   Mostly Cloudy
4:28 PM 48.0 °F - 37.9 °F 68% 29.83 in 10.0 mi WNW 17.3 mph - N/A   Mostly Cloudy
4:53 PM 48.9 °F - 39.0 °F 69% 29.84 in 10.0 mi West 20.7 mph 28.8 mph N/A   Mostly Cloudy
5:07 PM 48.0 °F - 39.0 °F 71% 29.84 in 10.0 mi WNW 19.6 mph - N/A   Mostly Cloudy
5:24 PM 46.9 °F - 37.9 °F 71% 29.85 in 10.0 mi WNW 21.9 mph 28.8 mph N/A   Mostly Cloudy
5:53 PM 48.9 °F - 39.0 °F 69% 29.87 in 10.0 mi WNW 18.4 mph 25.3 mph N/A   Mostly Cloudy
6:06 PM 48.9 °F - 37.9 °F 66% 29.87 in 10.0 mi WNW 19.6 mph 26.5 mph N/A   Scattered Clouds
6:53 PM 46.9 °F - 37.9 °F 71% 29.90 in 10.0 mi WNW 17.3 mph - N/A   Clear
7:53 PM 43.0 °F 36.4 °F 37.9 °F 82% 29.95 in 10.0 mi WNW 12.7 mph - N/A   Clear
8:53 PM 37.0 °F 31.0 °F 36.0 °F 96% 30.01 in 10.0 mi West 8.1 mph - N/A   Clear
9:53 PM 33.1 °F 24.9 °F 33.1 °F 100% 30.05 in 10.0 mi West 10.4 mph - N/A   Clear
10:53 PM 37.0 °F 28.9 °F 35.1 °F 93% 30.02 in 10.0 mi WNW 12.7 mph - N/A   Clear
11:53 PM 36.0 °F 29.0 °F 35.1 °F 97% 30.04 in 10.0 mi WNW 9.2 mph - N/A   Clear